MTN324 KMSO-KSEA

Flight info

Callsign MTN324
Flight time 1h 4m
Altitude 36000
Route MLP GLASR3
Aircraft B738/M-SDE2E3FGHIRWXY/LB1

Departure

Time 2026-05-04 18:20
Airport Missoula Montana Airport (KMSO)

Arrival

Time 2026-05-04 19:25
Airport Seattle–Tacoma International Airport (KSEA)
Time Latitude Longitude Altitude Speed Heading
2026-05-04 18:03 46.91799 -114.08374 3217 ft 0 kts 352°
2026-05-04 18:10 46.91775 -114.08370 3200 ft 4 kts 359°
2026-05-04 18:11 46.91749 -114.08375 3205 ft 4 kts 28°
2026-05-04 18:11 46.91739 -114.08385 3204 ft 0 kts 46°
2026-05-04 18:14 46.91740 -114.08384 3203 ft 1 kts 37°
2026-05-04 18:14 46.91749 -114.08391 3200 ft 2 kts 315°
2026-05-04 18:14 46.91752 -114.08424 3202 ft 5 kts 272°
2026-05-04 18:15 46.91824 -114.08600 3203 ft 15 kts 311°
2026-05-04 18:15 46.91931 -114.08801 3208 ft 9 kts 281°
2026-05-04 18:15 46.91904 -114.08876 3208 ft 9 kts 222°
2026-05-04 18:16 46.91850 -114.08944 3206 ft 12 kts 220°
2026-05-04 18:16 46.91794 -114.09019 3205 ft 11 kts 233°
2026-05-04 18:16 46.91807 -114.09125 3206 ft 13 kts 308°
2026-05-04 18:17 46.91958 -114.09385 3199 ft 21 kts 310°
2026-05-04 18:17 46.92058 -114.09557 3201 ft 22 kts 310°
2026-05-04 18:17 46.92254 -114.09892 3207 ft 21 kts 310°
2026-05-04 18:18 46.92347 -114.10051 3207 ft 20 kts 310°
2026-05-04 18:18 46.92438 -114.10207 3207 ft 20 kts 310°
2026-05-04 18:18 46.92524 -114.10353 3204 ft 17 kts 310°
2026-05-04 18:18 46.92581 -114.10463 3206 ft 10 kts 289°
2026-05-04 18:19 46.92495 -114.10620 3201 ft 6 kts 218°
2026-05-04 18:19 46.92456 -114.10606 3201 ft 6 kts 139°
2026-05-04 18:19 46.92439 -114.10578 3202 ft 0 kts 130°
2026-05-04 18:20 46.92376 -114.10470 3200 ft 45 kts 130°
2026-05-04 18:20 46.92019 -114.09861 3203 ft 112 kts 131°
2026-05-04 18:20 46.91383 -114.08775 3209 ft 167 kts 129°
2026-05-04 18:20 46.90578 -114.07430 3817 ft 177 kts 129°
2026-05-04 18:21 46.89793 -114.06077 4757 ft 164 kts 127°
2026-05-04 18:21 46.89053 -114.04845 5705 ft 168 kts 137°
2026-05-04 18:21 46.87876 -114.04039 6014 ft 206 kts 163°
2026-05-04 18:21 46.86353 -114.03951 6248 ft 236 kts 186°
2026-05-04 18:22 46.84658 -114.04369 6602 ft 254 kts 186°
2026-05-04 18:22 46.82883 -114.04786 7274 ft 262 kts 188°
2026-05-04 18:22 46.81072 -114.05204 8192 ft 264 kts 189°
2026-05-04 18:22 46.79273 -114.05620 9099 ft 266 kts 191°
2026-05-04 18:23 46.77418 -114.05956 9932 ft 273 kts 182°
2026-05-04 18:23 46.75505 -114.05705 10701 ft 280 kts 174°
2026-05-04 18:23 46.73511 -114.05223 11097 ft 304 kts 172°
2026-05-04 18:23 46.71330 -114.04665 11297 ft 332 kts 172°
2026-05-04 18:24 46.68966 -114.04090 11503 ft 357 kts 172°
2026-05-04 18:24 46.66424 -114.03514 11710 ft 380 kts 173°
2026-05-04 18:24 46.63760 -114.03155 12214 ft 389 kts 185°
2026-05-04 18:24 46.61150 -114.04089 12939 ft 388 kts 207°
2026-05-04 18:25 46.58930 -114.06286 13719 ft 387 kts 227°
2026-05-04 18:25 46.57353 -114.09435 14370 ft 386 kts 246°
2026-05-04 18:25 46.56546 -114.13136 15011 ft 385 kts 262°
2026-05-04 18:25 46.56140 -114.16999 15708 ft 388 kts 264°
2026-05-04 18:26 46.55776 -114.20907 16385 ft 393 kts 265°
2026-05-04 18:26 46.55414 -114.24856 17029 ft 395 kts 265°
2026-05-04 18:26 46.55040 -114.28825 17624 ft 399 kts 265°
2026-05-04 18:26 46.54650 -114.32848 18183 ft 405 kts 265°
2026-05-04 18:27 46.54249 -114.36865 18738 ft 409 kts 265°
2026-05-04 18:27 46.53831 -114.40968 19279 ft 412 kts 265°
2026-05-04 18:27 46.53407 -114.45093 19839 ft 415 kts 265°
2026-05-04 18:27 46.52976 -114.49257 20369 ft 419 kts 265°
2026-05-04 18:28 46.52539 -114.53465 20868 ft 423 kts 265°
2026-05-04 18:28 46.52098 -114.57699 21362 ft 426 kts 265°
2026-05-04 18:28 46.51651 -114.61973 21814 ft 429 kts 266°
2026-05-04 18:28 46.51200 -114.66270 22280 ft 431 kts 266°
2026-05-04 18:29 46.50744 -114.70613 22702 ft 436 kts 266°
2026-05-04 18:29 46.50282 -114.74992 23107 ft 440 kts 266°
2026-05-04 18:29 46.49945 -114.79340 23532 ft 438 kts 276°
2026-05-04 18:29 46.50452 -114.83632 23907 ft 429 kts 294°
2026-05-04 18:30 46.53706 -114.90609 24598 ft 417 kts 321°
2026-05-04 18:30 46.56099 -114.92972 24922 ft 417 kts 332°
2026-05-04 18:30 46.58651 -114.94995 25296 ft 419 kts 333°
2026-05-04 18:31 46.61238 -114.96976 25644 ft 420 kts 334°
2026-05-04 18:31 46.63827 -114.98951 26026 ft 422 kts 334°
2026-05-04 18:31 46.66426 -115.00948 26344 ft 424 kts 333°
2026-05-04 18:31 46.69048 -115.02985 26689 ft 426 kts 333°
2026-05-04 18:32 46.71627 -115.05007 27028 ft 428 kts 333°
2026-05-04 18:32 46.74252 -115.07077 27355 ft 430 kts 333°
2026-05-04 18:32 46.76896 -115.09171 27670 ft 432 kts 333°
2026-05-04 18:32 46.79539 -115.11270 28001 ft 433 kts 333°
2026-05-04 18:33 46.82189 -115.13379 28389 ft 433 kts 333°
2026-05-04 18:33 46.84832 -115.15484 28859 ft 431 kts 333°
2026-05-04 18:33 46.87462 -115.17581 29394 ft 429 kts 333°
2026-05-04 18:33 46.90072 -115.19664 29901 ft 426 kts 333°
2026-05-04 18:34 46.92647 -115.21720 30279 ft 425 kts 333°
2026-05-04 18:34 46.95244 -115.23797 30672 ft 424 kts 333°
2026-05-04 18:34 46.97822 -115.25859 31097 ft 421 kts 333°
2026-05-04 18:34 47.00385 -115.27913 31535 ft 418 kts 333°
2026-05-04 18:35 47.02938 -115.29960 31957 ft 416 kts 333°
2026-05-04 18:35 47.05473 -115.31996 32372 ft 414 kts 333°
2026-05-04 18:35 47.07999 -115.34027 32812 ft 411 kts 333°
2026-05-04 18:35 47.10501 -115.36040 33222 ft 409 kts 334°
2026-05-04 18:36 47.12994 -115.38048 33587 ft 407 kts 334°
2026-05-04 18:36 47.15472 -115.40046 33966 ft 405 kts 334°
2026-05-04 18:36 47.17941 -115.42040 34243 ft 404 kts 334°
2026-05-04 18:36 47.20398 -115.44025 34494 ft 403 kts 334°
2026-05-04 18:37 47.22854 -115.46012 34810 ft 401 kts 334°
2026-05-04 18:37 47.25288 -115.47983 35141 ft 399 kts 334°
2026-05-04 18:37 47.27687 -115.49928 35390 ft 399 kts 334°
2026-05-04 18:37 47.30115 -115.51899 35684 ft 397 kts 334°
2026-05-04 18:38 47.32540 -115.53869 35811 ft 400 kts 334°
2026-05-04 18:38 47.37425 -115.57842 35815 ft 400 kts 334°
2026-05-04 18:39 47.42176 -115.62020 35797 ft 400 kts 323°
2026-05-04 18:39 47.44048 -115.65103 35825 ft 408 kts 310°
2026-05-04 18:39 47.45475 -115.68779 35821 ft 418 kts 301°
2026-05-04 18:39 47.46318 -115.72955 35819 ft 432 kts 287°
2026-05-04 18:40 47.46676 -115.77327 35822 ft 436 kts 284°
2026-05-04 18:40 47.47165 -115.86287 35820 ft 437 kts 282°
2026-05-04 18:41 47.47626 -115.95252 35807 ft 437 kts 283°
2026-05-04 18:41 47.48131 -116.04205 35822 ft 436 kts 283°
2026-05-04 18:42 47.48656 -116.13133 35812 ft 436 kts 283°
2026-05-04 18:42 47.49178 -116.22035 35829 ft 433 kts 283°
2026-05-04 18:43 47.49691 -116.30894 35841 ft 432 kts 283°
2026-05-04 18:43 47.50195 -116.39706 35853 ft 434 kts 283°
2026-05-04 18:44 47.50699 -116.48623 35858 ft 436 kts 283°
2026-05-04 18:44 47.51196 -116.57573 35876 ft 437 kts 283°
2026-05-04 18:45 47.51688 -116.66577 35903 ft 439 kts 283°
2026-05-04 18:45 47.52173 -116.75594 35892 ft 440 kts 282°
2026-05-04 18:46 47.52653 -116.84640 35894 ft 441 kts 282°
2026-05-04 18:46 47.53046 -116.92165 35903 ft 441 kts 282°
2026-05-04 18:47 47.53512 -117.01214 35891 ft 441 kts 282°
2026-05-04 18:47 47.54045 -117.11722 35885 ft 440 kts 282°
2026-05-04 18:48 47.54420 -117.19232 35887 ft 440 kts 282°
2026-05-04 18:48 47.54865 -117.28263 35886 ft 439 kts 282°
2026-05-04 18:49 47.55301 -117.37274 35895 ft 439 kts 282°
2026-05-04 18:49 47.55732 -117.46303 35899 ft 439 kts 282°
2026-05-04 18:50 47.56156 -117.55333 35904 ft 440 kts 282°
2026-05-04 18:50 47.56598 -117.64363 35895 ft 438 kts 284°
2026-05-04 18:51 47.57396 -117.73270 35890 ft 435 kts 287°
2026-05-04 18:51 47.58308 -117.82067 35901 ft 435 kts 286°
2026-05-04 18:52 47.59197 -117.90957 35883 ft 437 kts 286°
2026-05-04 18:52 47.60050 -117.99878 35867 ft 438 kts 285°
2026-05-04 18:53 47.60884 -118.08817 35862 ft 438 kts 285°
2026-05-04 18:53 47.61712 -118.17780 35847 ft 439 kts 285°
2026-05-04 18:54 47.62535 -118.26749 35848 ft 439 kts 285°
2026-05-04 18:54 47.63350 -118.35719 35840 ft 439 kts 285°
2026-05-04 18:55 47.64160 -118.44702 35838 ft 439 kts 285°
2026-05-04 18:55 47.65357 -118.58123 35836 ft 440 kts 285°
2026-05-04 18:56 47.66150 -118.67119 35840 ft 440 kts 285°
2026-05-04 18:56 47.66938 -118.76137 35835 ft 441 kts 285°
2026-05-04 18:57 47.67718 -118.85161 35835 ft 441 kts 285°
2026-05-04 18:57 47.68493 -118.94195 35838 ft 442 kts 285°
2026-05-04 18:58 47.69263 -119.03262 35832 ft 442 kts 284°
2026-05-04 18:58 47.70025 -119.12323 35833 ft 442 kts 284°
2026-05-04 18:59 47.70780 -119.21386 35838 ft 442 kts 284°
2026-05-04 18:59 47.71527 -119.30448 35839 ft 442 kts 284°
2026-05-04 19:00 47.72270 -119.39532 35844 ft 443 kts 284°
2026-05-04 19:00 47.73006 -119.48626 35843 ft 444 kts 284°
2026-05-04 19:01 47.73730 -119.57677 35845 ft 444 kts 284°
2026-05-04 19:01 47.74452 -119.66809 35851 ft 445 kts 284°
2026-05-04 19:02 47.75168 -119.75944 35854 ft 445 kts 284°
2026-05-04 19:02 47.75526 -119.80534 35517 ft 451 kts 284°
2026-05-04 19:02 47.75888 -119.85177 34942 ft 451 kts 283°
2026-05-04 19:03 47.76243 -119.89810 34281 ft 451 kts 283°
2026-05-04 19:03 47.76597 -119.94451 33580 ft 452 kts 283°
2026-05-04 19:03 47.76950 -119.99092 32808 ft 452 kts 282°
2026-05-04 19:03 47.77302 -120.03743 32064 ft 453 kts 282°
2026-05-04 19:04 47.77655 -120.08412 31304 ft 453 kts 281°
2026-05-04 19:04 47.78002 -120.13062 30565 ft 453 kts 281°
2026-05-04 19:04 47.78348 -120.17710 29987 ft 450 kts 281°
2026-05-04 19:04 47.78683 -120.22255 29369 ft 445 kts 280°
2026-05-04 19:05 47.79015 -120.26797 28816 ft 439 kts 280°
2026-05-04 19:05 47.79341 -120.31282 28249 ft 433 kts 281°
2026-05-04 19:05 47.79663 -120.35707 27708 ft 428 kts 280°
2026-05-04 19:05 47.79979 -120.40076 27142 ft 422 kts 280°
2026-05-04 19:06 47.80289 -120.44385 26615 ft 417 kts 280°
2026-05-04 19:06 47.80598 -120.48671 26103 ft 413 kts 280°
2026-05-04 19:06 47.80900 -120.52903 25552 ft 410 kts 280°
2026-05-04 19:06 47.81198 -120.57100 25048 ft 407 kts 280°
2026-05-04 19:07 47.81494 -120.61274 24534 ft 404 kts 280°
2026-05-04 19:07 47.81785 -120.65413 24024 ft 401 kts 280°
2026-05-04 19:07 47.82073 -120.69535 23535 ft 399 kts 280°
2026-05-04 19:07 47.82359 -120.73635 22925 ft 397 kts 279°
2026-05-04 19:08 47.82641 -120.77705 22375 ft 394 kts 279°
2026-05-04 19:08 47.82917 -120.81735 21886 ft 389 kts 279°
2026-05-04 19:08 47.83188 -120.85725 21395 ft 385 kts 279°
2026-05-04 19:08 47.83457 -120.89681 20877 ft 382 kts 279°
2026-05-04 19:09 47.83719 -120.93555 20393 ft 380 kts 279°
2026-05-04 19:09 47.83985 -120.97509 19892 ft 378 kts 279°
2026-05-04 19:09 47.84246 -121.01398 19385 ft 376 kts 279°
2026-05-04 19:09 47.84504 -121.05270 18907 ft 375 kts 279°
2026-05-04 19:10 47.84761 -121.09127 18391 ft 374 kts 279°
2026-05-04 19:10 47.85012 -121.12923 17844 ft 372 kts 278°
2026-05-04 19:10 47.85262 -121.16738 17360 ft 369 kts 278°
2026-05-04 19:10 47.85508 -121.20521 16868 ft 366 kts 278°
2026-05-04 19:11 47.85753 -121.24293 16375 ft 365 kts 278°
2026-05-04 19:11 47.85995 -121.28051 15862 ft 362 kts 278°
2026-05-04 19:11 47.86234 -121.31773 15402 ft 360 kts 278°
2026-05-04 19:11 47.86471 -121.35470 14928 ft 358 kts 278°
2026-05-04 19:12 47.86704 -121.39149 14462 ft 357 kts 278°
2026-05-04 19:12 47.87170 -121.46509 13440 ft 356 kts 277°
2026-05-04 19:12 47.87400 -121.50175 12882 ft 354 kts 277°
2026-05-04 19:13 47.87625 -121.53739 12645 ft 344 kts 277°
2026-05-04 19:13 47.87840 -121.57237 12491 ft 334 kts 277°
2026-05-04 19:13 47.88049 -121.60631 12351 ft 324 kts 277°
2026-05-04 19:13 47.88251 -121.63928 12212 ft 315 kts 277°
2026-05-04 19:14 47.88426 -121.67143 12079 ft 308 kts 272°
2026-05-04 19:14 47.88025 -121.70238 11890 ft 306 kts 249°
2026-05-04 19:14 47.86859 -121.72877 11561 ft 308 kts 227°
2026-05-04 19:14 47.85301 -121.75062 11201 ft 309 kts 224°
2026-05-04 19:15 47.83692 -121.77187 10813 ft 308 kts 223°
2026-05-04 19:15 47.82099 -121.79287 10435 ft 304 kts 223°
2026-05-04 19:15 47.80529 -121.81385 10009 ft 302 kts 224°
2026-05-04 19:15 47.78971 -121.83485 9564 ft 302 kts 224°
2026-05-04 19:16 47.77428 -121.85569 9103 ft 299 kts 224°
2026-05-04 19:16 47.75900 -121.87636 8633 ft 295 kts 224°
2026-05-04 19:16 47.74652 -121.89982 8166 ft 287 kts 247°
2026-05-04 19:16 47.74220 -121.92815 7728 ft 280 kts 271°
2026-05-04 19:17 47.74273 -121.95651 7393 ft 276 kts 275°
2026-05-04 19:17 47.74390 -121.98486 7144 ft 273 kts 276°
2026-05-04 19:17 47.74515 -122.01288 6915 ft 271 kts 276°
2026-05-04 19:17 47.74646 -122.04075 6663 ft 269 kts 276°
2026-05-04 19:18 47.74772 -122.06834 6421 ft 267 kts 273°
2026-05-04 19:18 47.74683 -122.09581 6182 ft 265 kts 267°
2026-05-04 19:18 47.74516 -122.12305 5938 ft 264 kts 266°
2026-05-04 19:18 47.74345 -122.15011 5679 ft 262 kts 266°
2026-05-04 19:19 47.74170 -122.17704 5443 ft 262 kts 266°
2026-05-04 19:19 47.73994 -122.20398 5202 ft 261 kts 266°
2026-05-04 19:19 47.73818 -122.23066 4993 ft 258 kts 266°
2026-05-04 19:19 47.73643 -122.25720 4761 ft 258 kts 265°
2026-05-04 19:20 47.73275 -122.28265 4445 ft 249 kts 245°
2026-05-04 19:20 47.72195 -122.30153 4233 ft 246 kts 216°
2026-05-04 19:20 47.70633 -122.31164 4040 ft 250 kts 193°
2026-05-04 19:20 47.68875 -122.31514 4003 ft 253 kts 185°
2026-05-04 19:21 47.67120 -122.31620 3999 ft 252 kts 182°
2026-05-04 19:21 47.65411 -122.31632 3972 ft 243 kts 181°
2026-05-04 19:21 47.63752 -122.31634 3760 ft 234 kts 181°
2026-05-04 19:21 47.62145 -122.31644 3444 ft 228 kts 182°
2026-05-04 19:22 47.60586 -122.31659 3191 ft 222 kts 182°
2026-05-04 19:22 47.59054 -122.31673 2902 ft 216 kts 182°
2026-05-04 19:22 47.57585 -122.31691 2607 ft 205 kts 182°
2026-05-04 19:22 47.56201 -122.31707 2360 ft 192 kts 181°
2026-05-04 19:23 47.54887 -122.31710 2096 ft 185 kts 182°
2026-05-04 19:23 47.53625 -122.31721 1855 ft 178 kts 182°
2026-05-04 19:23 47.52421 -122.31734 1625 ft 169 kts 182°
2026-05-04 19:23 47.51298 -122.31740 1409 ft 157 kts 182°
2026-05-04 19:24 47.50228 -122.31752 1200 ft 152 kts 182°
2026-05-04 19:24 47.49178 -122.31761 1000 ft 150 kts 182°
2026-05-04 19:24 47.48142 -122.31770 829 ft 147 kts 181°
2026-05-04 19:24 47.47125 -122.31778 594 ft 144 kts 182°
2026-05-04 19:25 47.46141 -122.31791 434 ft 138 kts 181°
2026-05-04 19:25 47.45288 -122.31796 396 ft 83 kts 180°
2026-05-04 19:25 47.44943 -122.31771 390 ft 42 kts 165°
2026-05-04 19:25 47.44744 -122.31629 383 ft 27 kts 145°
2026-05-04 19:26 47.44655 -122.31427 387 ft 20 kts 101°
2026-05-04 19:26 47.44647 -122.31236 393 ft 17 kts 90°
2026-05-04 19:26 47.44608 -122.31080 393 ft 16 kts 132°
2026-05-04 19:26 47.44511 -122.30986 391 ft 17 kts 150°
2026-05-04 19:27 47.44411 -122.30904 391 ft 16 kts 150°
2026-05-04 19:27 47.44352 -122.30790 392 ft 13 kts 102°
2026-05-04 19:27 47.44362 -122.30663 392 ft 13 kts 52°
2026-05-04 19:27 47.44444 -122.30633 393 ft 12 kts
2026-05-04 19:28 47.44541 -122.30632 397 ft 16 kts
2026-05-04 19:28 47.44672 -122.30631 401 ft 22 kts
2026-05-04 19:28 47.44828 -122.30629 405 ft 21 kts
2026-05-04 19:28 47.44951 -122.30628 409 ft 16 kts
2026-05-04 19:29 47.45033 -122.30610 410 ft 10 kts 44°
2026-05-04 19:29 47.45045 -122.30507 413 ft 10 kts 90°
2026-05-04 19:29 47.45043 -122.30402 413 ft 11 kts 92°
2026-05-04 19:29 47.45037 -122.30286 412 ft 11 kts 110°
2026-05-04 19:30 47.44987 -122.30187 409 ft 13 kts 130°
2026-05-04 19:30 47.44932 -122.30093 409 ft 9 kts 132°
2026-05-04 19:30 47.44889 -122.30087 409 ft 4 kts 213°
2026-05-04 19:30 47.44869 -122.30110 408 ft 4 kts 219°
2026-05-04 19:31 47.44866 -122.30113 404 ft 0 kts 220°